Weather reports worldwide

Advertisment
Bluefield, wv, United States of America (2072067): temperature & dewpoint: 18.06.2018 10:00:00 - 24.06.2018 10:00:00 (EDT)Bluefield, wv, United States of America (2072067): wind speed: 18.06.2018 10:00:00 - 24.06.2018 10:00:00 (EDT)Bluefield, wv, United States of America (2072067): wind direction: 18.06.2018 10:00:00 - 24.06.2018 10:00:00 (EDT)Bluefield, wv, United States of America (2072067): reduced air pressure: 18.06.2018 10:00:00 - 24.06.2018 10:00:00 (EDT)Bluefield, wv, United States of America (2072067): visibility: 18.06.2018 10:00:00 - 24.06.2018 10:00:00 (EDT)Bluefield, wv, United States of America (2072067): precipitation: 18.06.2018 10:00:00 - 24.06.2018 10:00:00 (EDT)
Date & Time tt [°C] td [°C] ff [km/h] ff [kn] dd ppp [hPa] vv [km] rr [mm]
24.06.2018 10:00:00 21,7 18,3 9 5 W 1014,2 16 -
24.06.2018 09:00:00 20,0 17,8 15 8 SW 1014,2 16 -
24.06.2018 08:00:00 19,4 17,8 16 9 WSW 1013,7 16 -
24.06.2018 07:00:00 18,3 17,8 13 7 W 1013,7 16 -
24.06.2018 06:00:00 18,9 17,8 11 6 SW 1013,0 16 -
24.06.2018 05:00:00 18,9 18,3 15 8 WSW 1012,7 16 -
24.06.2018 04:00:00 18,9 18,3 15 8 WSW 1012,7 16 -
24.06.2018 03:00:00 18,9 17,8 15 8 WSW 1012,3 16 -
24.06.2018 02:00:00 18,9 17,8 13 7 WSW 1012,6 16 0,0
24.06.2018 01:00:00 20,0 16,7 11 6 WNW 1012,5 15 0,0
24.06.2018 00:00:00 20,0 16,1 11 6 WSW 1011,9 16 -
23.06.2018 23:00:00 20,6 16,1 0 0 N 1011,6 16 -
23.06.2018 22:00:00 19,4 16,7 0 0 N 1011,5 16 -
23.06.2018 21:00:00 20,0 17,8 0 0 N 1011,2 16 -
23.06.2018 20:00:00 22,2 17,8 8 4 W 1011,0 16 -
23.06.2018 19:00:00 22,8 17,8 11 6 W 1010,5 16 -
23.06.2018 18:00:00 22,8 17,8 11 6 W 1010,8 16 -
23.06.2018 17:00:00 23,3 17,2 22 12 W 1010,8 16 -
23.06.2018 16:00:00 21,1 18,9 13 7 SW 1011,3 16 0,0
23.06.2018 15:00:00 22,8 17,2 15 8 W 1011,2 16 0,0
23.06.2018 14:00:00 20,6 17,2 24 13 W 1011,9 16 0,0
23.06.2018 13:00:00 18,9 17,2 16 9 W 1011,7 11 0,0
23.06.2018 12:00:00 21,7 15,6 15 8 W 1010,8 16 -
23.06.2018 11:00:00 21,1 16,1 22 12 W 1010,8 16 -
23.06.2018 10:00:00 20,0 16,7 16 9 W 1011,1 16 -
23.06.2018 09:00:00 19,4 16,7 15 8 W 1011,0 16 -
23.06.2018 08:00:00 18,3 16,7 8 4 W 1010,6 16 -
23.06.2018 07:00:00 17,2 16,1 8 4 WSW 1010,2 16 -
23.06.2018 06:00:00 17,2 16,1 5 3 WSW 1009,5 16 0,0
23.06.2018 05:00:00 18,3 15,6 9 5 SW 1008,6 4,8 -
23.06.2018 04:00:00 17,2 15,6 0 0 N 1008,8 16 -
23.06.2018 03:00:00 17,8 15,0 5 3 WSW 1008,7 16 -
23.06.2018 02:00:00 18,3 15,0 8 4 - 1008,4 16 -
23.06.2018 01:00:00 18,9 15,6 9 5 SW 1009,0 16 -
23.06.2018 00:00:00 20,0 15,0 5 3 S 1009,4 16 -
22.06.2018 23:00:00 20,0 15,0 8 4 SSW 1009,1 16 -
22.06.2018 22:00:00 18,9 17,2 5 3 ESE 1008,6 16 -
22.06.2018 21:00:00 18,9 17,8 5 3 SSE 1008,5 16 -
22.06.2018 20:00:00 20,0 17,8 5 3 SW 1008,8 16 -
22.06.2018 19:00:00 20,6 18,3 8 4 WSW 1008,0 16 0,0
22.06.2018 18:00:00 22,2 17,8 11 6 W 1007,8 16 -
22.06.2018 17:00:00 24,4 17,8 13 7 WSW 1007,4 10 -
22.06.2018 16:00:00 23,9 19,4 8 4 - 1007,3 16 0,0
22.06.2018 15:00:00 22,2 17,8 15 8 WSW 1008,3 16 0,0
22.06.2018 14:00:00 24,4 16,7 16 9 SW 1008,3 16 -
22.06.2018 13:00:00 22,8 18,3 8 4 - 1009,4 16 0,0
22.06.2018 12:00:00 22,2 18,9 9 5 SW 1009,6 16 0,0
22.06.2018 11:00:00 23,3 18,3 21 11 SW 1009,4 16 -
22.06.2018 10:00:00 22,8 18,9 0 0 N 1009,5 16 -
22.06.2018 09:00:00 21,1 18,3 8 4 SW 1009,6 16 -
22.06.2018 08:00:00 19,4 18,3 8 4 SW 1009,6 16 -
22.06.2018 07:00:00 18,9 17,8 8 4 SW 1009,6 16 -
22.06.2018 06:00:00 17,8 17,2 9 5 W 1009,1 16 -
22.06.2018 05:00:00 17,8 17,8 8 4 WSW 1008,4 16 -
22.06.2018 04:00:00 17,8 17,2 9 5 W 1008,2 16 -
22.06.2018 03:00:00 17,2 17,2 5 3 SW 1008,4 16 -
22.06.2018 02:00:00 17,8 17,8 0 0 N 1009,2 16 -
22.06.2018 01:00:00 17,8 17,8 5 3 WSW 1009,8 16 -
22.06.2018 00:00:00 18,3 18,3 5 3 WSW 1009,8 16 -
21.06.2018 23:00:00 18,9 18,9 0 0 N 1010,0 13 -
21.06.2018 22:00:00 19,4 19,4 0 0 N 1009,6 16 -
21.06.2018 21:00:00 20,0 19,4 8 4 WSW 1009,0 16 -
21.06.2018 20:00:00 20,0 20,0 5 3 W 1008,8 16 0,3
21.06.2018 19:00:00 20,0 20,0 9 5 W 1008,9 16 0,3
21.06.2018 18:00:00 20,0 19,4 13 7 W 1008,7 10 0,3
21.06.2018 17:00:00 22,8 20,0 0 0 N 1008,5 16 0,3
21.06.2018 16:00:00 21,7 20,6 5 3 - 1009,1 16 0,3
21.06.2018 15:00:00 21,7 20,0 0 0 N 1010,0 10 0,0
21.06.2018 14:00:00 21,1 20,0 11 6 WSW 1010,6 16 0,5
21.06.2018 13:00:00 20,0 19,4 11 6 WSW 1011,3 6 -
21.06.2018 12:00:00 20,6 20,0 11 6 W 1011,7 10 -
21.06.2018 11:00:00 20,0 19,4 8 4 W 1011,7 10 0,0
21.06.2018 10:00:00 20,6 19,4 9 5 W 1011,4 16 -
21.06.2018 09:00:00 20,0 19,4 8 4 - 1011,5 16 -
21.06.2018 08:00:00 20,0 20,0 8 4 W 1011,1 16 -
21.06.2018 07:00:00 19,4 19,4 9 5 NW 1010,9 16 -
21.06.2018 06:00:00 19,4 19,4 9 5 W 1010,4 16 -
21.06.2018 05:00:00 19,4 18,9 5 3 W 1010,3 16 -
21.06.2018 04:00:00 19,4 18,9 9 5 W 1010,4 16 0,3
21.06.2018 03:00:00 19,4 18,9 9 5 WSW 1010,8 11 0,0
21.06.2018 02:00:00 19,4 18,9 11 6 WSW 1011,3 16 0,8
21.06.2018 01:00:00 19,4 18,9 13 7 WSW 1011,9 16 1,3
21.06.2018 00:00:00 19,4 19,4 9 5 WSW 1012,2 16 -
20.06.2018 23:00:00 20,0 19,4 8 4 W 1012,1 16 -
20.06.2018 22:00:00 20,6 18,9 8 4 WSW 1011,9 16 -
20.06.2018 21:00:00 21,1 18,9 8 4 WSW 1011,3 16 0,3
20.06.2018 20:00:00 21,7 18,3 11 6 W 1011,2 16 -
20.06.2018 19:00:00 23,3 17,8 15 8 WSW 1011,2 16 -
20.06.2018 18:00:00 25,6 16,7 18 10 WNW 1010,9 16 -
20.06.2018 17:00:00 26,1 18,9 15 8 W 1011,0 16 -
20.06.2018 16:00:00 26,1 18,3 18 10 WSW 1011,4 16 -
20.06.2018 15:00:00 25,6 18,9 18 10 W 1012,5 16 -
20.06.2018 14:00:00 23,9 17,8 15 8 W 1013,4 16 0,0
20.06.2018 13:00:00 23,9 18,3 13 7 W 1013,8 16 -
20.06.2018 12:00:00 23,9 18,3 18 10 W 1014,2 16 -
20.06.2018 11:00:00 24,4 20,0 13 7 WNW 1014,3 16 -
20.06.2018 10:00:00 22,8 19,4 15 8 WNW 1014,2 16 -
20.06.2018 09:00:00 21,7 19,4 13 7 W 1014,4 16 -
20.06.2018 08:00:00 20,6 18,9 11 6 WSW 1013,8 16 -
20.06.2018 07:00:00 19,4 18,9 9 5 WSW 1013,8 16 -
20.06.2018 06:00:00 18,9 18,3 9 5 WSW 1013,3 16 -
20.06.2018 05:00:00 18,9 18,3 11 6 W 1013,0 16 -
20.06.2018 04:00:00 19,4 18,9 9 5 W 1013,3 16 -
20.06.2018 03:00:00 19,4 18,3 11 6 W 1013,4 16 -
20.06.2018 02:00:00 19,4 18,3 11 6 WSW 1013,8 16 -
20.06.2018 01:00:00 20,0 18,3 8 4 W 1014,3 16 -
20.06.2018 00:00:00 19,4 19,4 8 4 WSW 1014,7 16 -
19.06.2018 23:00:00 18,9 18,9 5 3 SE 1015,3 13 -
19.06.2018 22:00:00 21,1 18,9 0 0 N 1014,8 16 -
19.06.2018 21:00:00 20,0 19,4 0 0 N 1014,4 16 1,0
19.06.2018 20:00:00 26,1 18,3 8 4 W 1013,3 10 -
19.06.2018 19:00:00 27,2 18,3 16 9 W 1012,8 16 -
19.06.2018 18:00:00 27,8 18,3 13 7 W 1012,9 16 -
19.06.2018 17:00:00 28,3 18,3 16 9 WNW 1013,0 16 -
19.06.2018 16:00:00 28,9 18,9 16 9 W 1013,3 16 -
19.06.2018 15:00:00 28,3 18,9 18 10 WNW 1014,3 16 -
19.06.2018 14:00:00 27,2 18,9 21 11 W 1015,1 16 -
19.06.2018 13:00:00 26,7 18,9 9 5 WNW 1015,7 16 -
19.06.2018 12:00:00 25,0 20,0 15 8 WNW 1016,3 16 -
19.06.2018 11:00:00 23,9 20,6 16 9 WNW 1016,7 16 -
19.06.2018 10:00:00 23,3 20,6 9 5 WNW 1017,0 16 -
19.06.2018 09:00:00 22,2 20,6 11 6 W 1017,2 10 -
19.06.2018 08:00:00 21,1 20,0 8 4 WNW 1017,2 16 -
19.06.2018 07:00:00 20,6 20,0 9 5 W 1016,9 16 -
19.06.2018 06:00:00 20,0 19,4 11 6 W 1016,6 16 -
19.06.2018 05:00:00 20,0 19,4 9 5 W 1016,4 16 -
19.06.2018 04:00:00 21,1 19,4 11 6 W 1016,1 16 -
19.06.2018 03:00:00 20,6 19,4 11 6 W 1016,6 16 -
19.06.2018 02:00:00 21,1 19,4 5 3 W 1016,9 16 -
19.06.2018 01:00:00 21,1 18,9 9 5 WSW 1017,3 16 -
19.06.2018 00:00:00 21,7 18,9 8 4 WSW 1017,2 16 -
18.06.2018 23:00:00 22,2 18,9 8 4 WSW 1017,4 16 -
18.06.2018 22:00:00 23,3 19,4 8 4 W 1017,1 16 -
18.06.2018 21:00:00 24,4 19,4 9 5 W 1016,7 16 -
18.06.2018 20:00:00 26,7 18,3 11 6 W 1016,5 16 -
18.06.2018 19:00:00 27,8 18,3 9 5 W 1016,9 16 -
18.06.2018 18:00:00 28,9 18,3 11 6 WNW 1017,1 16 -
18.06.2018 17:00:00 28,9 18,3 13 7 WNW 1017,5 16 -
18.06.2018 16:00:00 29,4 18,3 11 6 - 1017,9 16 -
18.06.2018 15:00:00 27,8 18,3 11 6 WNW 1019,0 16 -
18.06.2018 14:00:00 28,3 18,3 11 6 - 1019,4 16 -
18.06.2018 13:00:00 27,2 18,3 15 8 NW 1020,4 16 -
18.06.2018 12:00:00 26,1 18,9 15 8 NW 1020,4 16 -
18.06.2018 11:00:00 25,6 19,4 13 7 W 1020,3 16 -
18.06.2018 10:00:00 24,4 20,0 11 6 WNW 1020,4 16 -

tt = temperature
td = dewpoint
ff = wind speed
dd = wind direction
ppp = reduced air pressure
vv = visibility
rr = precipitation

Next stations